Weather History for Buena Vista, CO

Change the Weather History Date:

Sunday, December 22, 2013

  Actual Average (KLXV) Record (KLXV)
Temperature  
Mean Temperature 18 °F -  
Max Temperature 29 °F 29 °F 40 °F (2010)
Min Temperature 7 °F 4 °F -27 °F (1990)
Degree Days  
Heating Degree Days 47 49  
Month to date heating degree days 1060  
Since 1 July heating degree days 4465  
Cooling Degree Days 0 0  
Month to date cooling degree days 0  
Year to date cooling degree days 0  
Moisture  
Dew Point 5 °F    
Average Humidity 54    
Maximum Humidity 73    
Minimum Humidity 30    
Precipitation  
Precipitation 0.00 in 0.02 in 0.10 in (1977)
Month to date precipitation 0.54  
Year to date precipitation 12.24  
Sea Level Pressure  
Sea Level Pressure 29.98 in    
Wind  
Wind Speed 8 mph (West)    
Max Wind Speed 25 mph    
Max Gust Speed 38 mph    
Visibility 10 miles    
Events      
T = Trace of Precipitation, MM = Missing Value Source: NWS Daily Summary

Daily Weather History Graph

Daily Weather History Graph

Search for Another Location

Airport:

Trip Planner

Search our weather history database for the weather conditions in past years. The results will help you decide how hot, cold, wet, or windy it might be!

Date:

Astronomy

Dec. 22, 2013 Rise Set
Actual Time 7:19 AM MST 4:46 PM MST
Civil Twilight 6:49 AM MST 5:16 PM MST
Nautical Twilight 6:16 AM MST 5:50 PM MST
Astronomical Twilight 5:43 AM MST 6:22 PM MST
Moon 9:59 PM MST (12/22) 10:20 AM MST (12/22)
Length of Visible Light 10h 26m
Length of Day
9h 26m
Waning Gibbous, 76% of the Moon is Illuminated
Dec 22
Waning Gibbous
Dec 25
Last Quarter
Jan 1
New
Jan 7
First Quarter
Jan 15
Full

Hourly Weather History & Observations

Time (MST) Temp. Windchill Dew Point Humidity Pressure Visibility Wind Dir Wind Speed Gust Speed Precip Events Conditions
12:15 AM 15.3 °F 9.6 °F 5.2 °F 64% 29.82 in 10.0 mi WNW 3.5 mph - N/A   Clear
12:35 AM 14.5 °F 2.7 °F 4.5 °F 64% 29.83 in 10.0 mi WNW 9.2 mph - N/A   Clear
12:55 AM 14.9 °F 3.1 °F 4.5 °F 63% 29.83 in 10.0 mi West 9.2 mph - N/A   Clear
1:15 AM 14.2 °F 0.0 °F 4.3 °F 65% 29.84 in 10.0 mi WNW 12.7 mph - N/A   Clear
1:35 AM 15.3 °F 0.8 °F 4.8 °F 63% 29.84 in 10.0 mi WNW 13.8 mph - N/A   Clear
1:55 AM 14.9 °F 0.9 °F 4.5 °F 63% 29.86 in 10.0 mi NW 12.7 mph - N/A   Clear
2:15 AM 14.2 °F 0.0 °F 4.1 °F 64% 29.86 in 10.0 mi NNW 12.7 mph 18.4 mph N/A   Clear
2:35 AM 16.0 °F 4.4 °F 3.6 °F 58% 29.88 in 10.0 mi NW 9.2 mph - N/A   Clear
2:55 AM 12.4 °F -0.8 °F 2.1 °F 64% 29.88 in 10.0 mi NW 10.4 mph - N/A   Clear
3:15 AM 15.3 °F 3.5 °F 3.9 °F 61% 29.89 in 10.0 mi WNW 9.2 mph - N/A   Clear
3:35 AM 14.0 °F 2.9 °F 3.7 °F 64% 29.89 in 10.0 mi WNW 8.1 mph - N/A   Clear
3:55 AM 14.5 °F 1.1 °F 3.7 °F 62% 29.90 in 10.0 mi NW 11.5 mph - N/A   Clear
4:15 AM 14.0 °F 2.9 °F 3.6 °F 63% 29.91 in 10.0 mi NNW 8.1 mph - N/A   Clear
4:35 AM 12.2 °F 2.9 °F 2.8 °F 66% 29.91 in 10.0 mi NW 5.8 mph - N/A   Clear
4:55 AM 12.4 °F 4.6 °F 3.2 °F 67% 29.91 in 10.0 mi NW 4.6 mph - N/A   Clear
5:15 AM 13.3 °F 5.6 °F 2.8 °F 63% 29.92 in 10.0 mi NNW 4.6 mph - N/A   Clear
5:35 AM 12.7 °F 1.4 °F 3.0 °F 65% 29.93 in 10.0 mi WNW 8.1 mph - N/A   Clear
5:55 AM 12.0 °F 2.7 °F 2.8 °F 67% 29.93 in 10.0 mi North 5.8 mph - N/A   Clear
6:15 AM 12.6 °F 0.2 °F 2.5 °F 64% 29.94 in 10.0 mi NNW 9.2 mph - N/A   Clear
6:35 AM 10.6 °F 2.5 °F 1.4 °F 67% 29.95 in 10.0 mi ESE 4.6 mph - N/A   Clear
6:55 AM 7.9 °F - 0.7 °F 72% 29.95 in 10.0 mi Calm Calm - N/A   Clear
7:15 AM 8.1 °F 1.4 °F 0.1 °F 70% 29.97 in 10.0 mi South 3.5 mph - N/A   Clear
7:35 AM 10.2 °F - 0.5 °F 65% 29.97 in 10.0 mi Calm Calm - N/A   Clear
7:55 AM 7.5 °F -2.6 °F 0.5 °F 73% 29.99 in 10.0 mi SE 5.8 mph - N/A   Clear
8:15 AM 9.3 °F -0.5 °F 1.0 °F 69% 30.00 in 10.0 mi South 5.8 mph - N/A   Clear
8:35 AM 12.0 °F 2.7 °F 2.5 °F 66% 30.00 in 10.0 mi ESE 5.8 mph - N/A   Clear
8:55 AM 11.8 °F 2.5 °F 3.4 °F 69% 30.01 in 10.0 mi ESE 5.8 mph - N/A   Clear
9:15 AM 13.5 °F - 4.1 °F 66% 30.02 in 10.0 mi Calm Calm - N/A   Clear
9:35 AM 14.9 °F 9.2 °F 4.8 °F 64% 30.02 in 10.0 mi East 3.5 mph - N/A   Clear
9:55 AM 18.3 °F 10.2 °F 5.9 °F 58% 30.02 in 10.0 mi SE 5.8 mph - N/A   Clear
10:15 AM 20.8 °F 13.2 °F 5.9 °F 53% 30.03 in 10.0 mi SE 5.8 mph - N/A   Clear
10:35 AM 22.6 °F 15.3 °F 4.8 °F 46% 30.03 in 10.0 mi ESE 5.8 mph - N/A   Clear
10:55 AM 23.0 °F - 3.4 °F 43% 30.02 in 10.0 mi Calm Calm - N/A   Clear
11:15 AM 24.1 °F 19.7 °F 3.6 °F 41% 30.01 in 10.0 mi SSE 3.5 mph - N/A   Clear
11:35 AM 25.3 °F 21.1 °F 4.8 °F 42% 30.01 in 10.0 mi SSW 3.5 mph - N/A   Clear
11:55 AM 26.1 °F 20.5 °F 2.3 °F 36% 29.99 in 10.0 mi East 4.6 mph - N/A   Clear
12:15 PM 27.1 °F 23.2 °F 2.3 °F 35% 29.99 in 10.0 mi SE 3.5 mph - N/A   Clear
12:35 PM 27.5 °F 22.2 °F 0.9 °F 32% 29.97 in 10.0 mi SSE 4.6 mph - N/A   Clear
12:55 PM 28.6 °F 24.8 °F 2.1 °F 32% 29.96 in 10.0 mi SE 3.5 mph - N/A   Clear
1:15 PM 28.9 °F 25.2 °F 0.9 °F 30% 29.96 in 10.0 mi ESE 3.5 mph - N/A   Clear
1:35 PM 28.9 °F 23.9 °F 1.8 °F 31% 29.96 in 10.0 mi ESE 4.6 mph - N/A   Clear
1:55 PM 28.9 °F 23.9 °F 2.1 °F 32% 29.95 in 10.0 mi SSE 4.6 mph - N/A   Clear
2:15 PM 29.1 °F 24.1 °F 5.2 °F 36% 29.95 in 10.0 mi SSW 4.6 mph - N/A   Clear
2:35 PM 29.3 °F 20.2 °F 6.4 °F 38% 29.96 in 10.0 mi NNW 10.4 mph - N/A   Clear
2:55 PM 28.9 °F 19.2 °F 8.1 °F 41% 29.96 in 10.0 mi NW 11.5 mph 19.6 mph N/A   Clear
3:15 PM 28.4 °F 18.5 °F 7.5 °F 41% 29.97 in 10.0 mi NW 11.5 mph 17.3 mph N/A   Clear
3:35 PM 25.7 °F 17.1 °F 7.2 °F 45% 29.98 in 10.0 mi WNW 8.1 mph - N/A   Scattered Clouds
3:55 PM 26.1 °F 14.0 °F 9.1 °F 49% 29.99 in 10.0 mi West 15.0 mph 20.7 mph N/A   Scattered Clouds
4:15 PM 25.3 °F 15.3 °F 7.2 °F 46% 30.00 in 10.0 mi West 10.4 mph - N/A   Mostly Cloudy
4:35 PM 25.0 °F 14.8 °F 7.5 °F 48% 30.01 in 10.0 mi West 10.4 mph 17.3 mph N/A   Overcast
4:55 PM 24.8 °F 17.9 °F 6.3 °F 45% 30.02 in 10.0 mi West 5.8 mph - N/A   Overcast
5:15 PM 24.6 °F 15.8 °F 6.4 °F 46% 30.03 in 10.0 mi West 8.1 mph 23.0 mph N/A   Overcast
5:35 PM 23.5 °F 14.5 °F 6.4 °F 48% 30.03 in 10.0 mi West 8.1 mph - N/A   Scattered Clouds
5:55 PM 22.1 °F 8.9 °F 7.9 °F 54% 30.03 in 10.0 mi West 15.0 mph 20.7 mph N/A   Clear
6:15 PM 22.5 °F 8.5 °F 7.5 °F 53% 30.03 in 10.0 mi West 17.3 mph 28.8 mph N/A   Clear
6:35 PM 21.9 °F 5.1 °F 7.5 °F 54% 30.03 in 10.0 mi WSW 25.3 mph 31.1 mph N/A   Clear
6:55 PM 22.6 °F 6.4 °F 7.2 °F 52% 30.01 in 10.0 mi WSW 24.2 mph 38.0 mph N/A   Clear
7:15 PM 22.8 °F 11.5 °F 6.8 °F 50% 30.03 in 10.0 mi WNW 11.5 mph 28.8 mph N/A   Clear
7:35 PM 23.0 °F 7.6 °F 6.6 °F 50% 30.03 in 10.0 mi WSW 21.9 mph 28.8 mph N/A   Clear
7:55 PM 23.0 °F 10.1 °F 6.8 °F 50% 30.05 in 10.0 mi West 15.0 mph 29.9 mph N/A   Clear
8:15 PM 23.2 °F 12.6 °F 6.4 °F 49% 30.06 in 10.0 mi West 10.4 mph 25.3 mph N/A   Clear
8:35 PM 22.8 °F 8.1 °F 8.1 °F 53% 30.07 in 10.0 mi WSW 19.6 mph 29.9 mph N/A   Scattered Clouds
8:55 PM 23.5 °F 9.9 °F 7.7 °F 51% 30.06 in 10.0 mi WSW 17.3 mph 29.9 mph N/A   Scattered Clouds
9:15 PM 23.7 °F 13.3 °F 7.0 °F 49% 30.07 in 10.0 mi West 10.4 mph 24.2 mph N/A   Scattered Clouds
9:35 PM 22.8 °F 9.9 °F 7.2 °F 51% 30.07 in 10.0 mi West 15.0 mph 21.9 mph N/A   Clear
9:55 PM 23.7 °F 12.1 °F 6.1 °F 47% 30.08 in 10.0 mi West 12.7 mph 20.7 mph N/A   Clear
10:15 PM 23.5 °F 10.3 °F 7.7 °F 51% 30.09 in 10.0 mi NW 16.1 mph 23.0 mph N/A   Clear
10:35 PM 22.6 °F 14.3 °F 7.7 °F 53% 30.10 in 10.0 mi West 6.9 mph 18.4 mph N/A   Clear
10:55 PM 23.4 °F 8.4 °F 7.2 °F 50% 30.10 in 10.0 mi West 20.7 mph 27.6 mph N/A   Clear
11:15 PM 23.4 °F 9.2 °F 7.5 °F 51% 30.10 in 10.0 mi West 18.4 mph 25.3 mph N/A   Clear
11:35 PM 23.2 °F 9.8 °F 7.9 °F 52% 30.10 in 10.0 mi West 16.1 mph 31.1 mph N/A   Clear
11:55 PM 22.8 °F 9.9 °F 8.6 °F 55% 30.10 in 10.0 mi West 15.0 mph 23.0 mph N/A   Mostly Cloudy